sat.trackr.live / text

‹ back to catalog

STARLINK-6273

NORAD 56395 · 2023-061X

PAYLOAD ACTIVE UNKNOWN

§ Identity

Operator
Country
US
Launch date
2023-05-04
Launch site
AFETR
Launch vehicle
Mass (kg)
RCS (m²)

Purposes: comms

External: N2YO · Heavens-Above · Gunter

§ Orbital elements

Epoch: 2026-05-25T05:12:01.698048Z

Period
94.27 min
Inclination
43.0011°
Eccentricity
0.0001239
Mean motion
15.27584100 rev/d
Perigee alt
482.2 km
Apogee alt
483.9 km
Semi-major
6,861.2 km
B*
-3.3144e-5
RAAN
115.2648°
Arg perigee
270.7177°
Mean anomaly
89.3533°
Rev number
16,928

§ Raw data

STARLINK-62731 56395U 23061X   26145.21668632 -.00001174  00000+0 -33144-4 0  99952 56395  43.0011 115.2648 0001239 270.7177  89.3533 15.27584100169282

JSON: /api/v1/satellites/56395 · /tle

For live sub-satellite position, see the globe view (requires WebGL).

§ Visibility from observer

Set your observer location to see the next 7 days of passes ≥ 10°. The values pass through the URL so the page stays shareable.

No JS? Fill the form by hand. The geolocation button needs JavaScript.